Time,TemperatureF,DewpointF,PressureIn,WindDirection,WindDirectionDegrees,WindSpeedMPH,WindSpeedGustMPH,Humidity,HourlyPrecipIn,Conditions,Clouds,dailyrainin,SoftwareType,DateUTC
2013-04-29 00:03:00,66.0,60.0,30.05,ESE,114,5.0,8.0,79,-99.99,,,-99.99,,2013-04-29 04:03:00,
2013-04-29 00:13:00,66.0,60.0,30.05,ESE,113,5.0,8.0,80,-99.99,,,-99.99,,2013-04-29 04:13:00,
2013-04-29 00:23:00,66.0,60.0,30.05,ESE,113,5.0,8.0,80,-99.99,,,-99.99,,2013-04-29 04:23:00,
2013-04-29 00:33:00,66.0,60.0,30.06,ESE,116,4.0,6.0,79,-99.99,,,-99.99,,2013-04-29 04:33:00,
2013-04-29 00:43:00,65.0,59.0,30.06,ESE,110,5.0,7.0,80,-99.99,,,-99.99,,2013-04-29 04:43:00,
2013-04-29 00:52:00,65.0,59.0,30.06,ESE,110,5.0,7.0,80,-99.99,,,-99.99,,2013-04-29 04:52:00,
2013-04-29 01:02:00,65.0,59.0,30.06,ESE,109,4.0,7.0,82,-99.99,,,-99.99,,2013-04-29 05:02:00,
2013-04-29 01:12:00,65.0,60.0,30.06,ESE,106,5.0,7.0,82,-99.99,,,-99.99,,2013-04-29 05:12:00,
2013-04-29 01:22:00,65.0,60.0,30.06,ESE,106,5.0,7.0,82,-99.99,,,-99.99,,2013-04-29 05:22:00,
2013-04-29 01:32:00,65.0,60.0,30.06,ESE,106,5.0,7.0,82,-99.99,,,-99.99,,2013-04-29 05:32:00,
2013-04-29 01:42:00,64.0,59.0,30.06,ESE,117,5.0,6.0,83,-99.99,,,-99.99,,2013-04-29 05:42:00,
2013-04-29 01:52:00,64.0,59.0,30.06,ESE,117,5.0,6.0,83,-99.99,,,-99.99,,2013-04-29 05:52:00,
2013-04-29 02:02:00,65.0,60.0,30.06,ESE,109,4.0,5.0,83,-99.99,,,-99.99,,2013-04-29 06:02:00,
2013-04-29 02:12:00,64.0,59.0,30.05,ESE,109,4.0,6.0,84,-99.99,,,-99.99,,2013-04-29 06:12:00,
2013-04-29 02:22:00,64.0,59.0,30.05,ESE,109,4.0,6.0,84,-99.99,,,-99.99,,2013-04-29 06:22:00,
2013-04-29 02:32:00,63.0,59.0,30.04,ESE,120,4.0,5.0,85,-99.99,,,-99.99,,2013-04-29 06:32:00,
2013-04-29 02:42:00,63.0,59.0,30.04,ESE,120,4.0,5.0,85,-99.99,,,-99.99,,2013-04-29 06:42:00,
2013-04-29 02:52:00,63.0,59.0,30.03,ESE,108,3.0,5.0,86,-99.99,,,-99.99,,2013-04-29 06:52:00,
2013-04-29 03:02:00,63.0,59.0,30.03,East,93,5.0,6.0,87,-99.99,,,-99.99,,2013-04-29 07:02:00,
2013-04-29 03:11:00,63.0,59.0,30.03,East,93,5.0,6.0,87,-99.99,,,-99.99,,2013-04-29 07:11:00,
2013-04-29 03:22:00,63.0,59.0,30.03,East,93,5.0,6.0,87,-99.99,,,-99.99,,2013-04-29 07:22:00,
2013-04-29 03:32:00,64.0,60.0,30.03,East,96,5.0,6.0,87,-99.99,,,-99.99,,2013-04-29 07:32:00,
2013-04-29 03:42:00,64.0,60.0,30.02,ESE,105,4.0,5.0,87,-99.99,,,-99.99,,2013-04-29 07:42:00,
2013-04-29 03:52:00,64.0,60.0,30.02,ESE,105,4.0,5.0,87,-99.99,,,-99.99,,2013-04-29 07:52:00,
2013-04-29 04:03:00,63.0,60.0,30.02,ESE,103,3.0,4.0,87,-99.99,,,-99.99,,2013-04-29 08:03:00,
2013-04-29 04:11:00,63.0,60.0,30.02,East,94,4.0,5.0,87,-99.99,,,-99.99,,2013-04-29 08:11:00,
2013-04-29 04:22:00,63.0,60.0,30.02,East,94,4.0,5.0,87,-99.99,,,-99.99,,2013-04-29 08:22:00,
2013-04-29 04:32:00,63.0,60.0,30.02,East,94,4.0,5.0,87,-99.99,,,-99.99,,2013-04-29 08:32:00,
2013-04-29 04:42:00,63.0,60.0,30.01,East,100,5.0,6.0,89,-99.99,,,-99.99,,2013-04-29 08:42:00,
2013-04-29 04:52:00,63.0,60.0,30.01,East,100,5.0,6.0,89,-99.99,,,-99.99,,2013-04-29 08:52:00,
2013-04-29 05:01:00,62.0,59.0,30.01,ESE,107,4.0,6.0,88,-99.99,,,-99.99,,2013-04-29 09:01:00,
2013-04-29 05:12:00,62.0,59.0,30.01,ESE,104,4.0,6.0,89,-99.99,,,-99.99,,2013-04-29 09:12:00,
2013-04-29 05:22:00,62.0,59.0,30.01,ESE,104,4.0,6.0,89,-99.99,,,-99.99,,2013-04-29 09:22:00,
2013-04-29 05:33:00,62.0,59.0,30.01,East,94,5.0,7.0,90,-99.99,,,-99.99,,2013-04-29 09:33:00,
2013-04-29 05:42:00,62.0,60.0,30.01,East,100,3.0,6.0,90,-99.99,,,-99.99,,2013-04-29 09:42:00,
2013-04-29 05:53:00,62.0,60.0,30.01,East,100,3.0,6.0,90,-99.99,,,-99.99,,2013-04-29 09:53:00,
2013-04-29 06:02:00,62.0,60.0,30.02,East,97,2.0,3.0,90,-99.99,,,-99.99,,2013-04-29 10:02:00,
2013-04-29 06:12:00,62.0,59.0,30.02,East,100,4.0,5.0,90,-99.99,,,-99.99,,2013-04-29 10:12:00,
2013-04-29 06:23:00,62.0,59.0,30.02,East,100,4.0,5.0,90,-99.99,,,-99.99,,2013-04-29 10:23:00,
2013-04-29 06:32:00,62.0,59.0,30.02,East,95,3.0,5.0,91,-99.99,,,-99.99,,2013-04-29 10:32:00,
2013-04-29 06:42:00,61.0,58.0,30.02,East,84,1.0,3.0,91,-99.99,,,-99.99,,2013-04-29 10:42:00,
2013-04-29 06:52:00,59.0,57.0,30.02,WNW,299,2.0,2.0,91,-99.99,,,-99.99,,2013-04-29 10:52:00,
2013-04-29 07:03:00,59.0,57.0,30.03,SSW,205,2.0,2.0,92,-99.99,,,-99.99,,2013-04-29 11:03:00,
2013-04-29 07:12:00,59.0,57.0,30.03,SSW,205,2.0,2.0,92,-99.99,,,-99.99,,2013-04-29 11:12:00,
2013-04-29 07:22:00,59.0,57.0,30.03,SSW,205,2.0,2.0,92,-99.99,,,-99.99,,2013-04-29 11:22:00,
2013-04-29 07:32:00,59.0,57.0,30.03,SSW,205,2.0,2.0,92,-99.99,,,-99.99,,2013-04-29 11:32:00,
2013-04-29 07:42:00,59.0,57.0,30.03,ENE,57,3.0,4.0,92,-99.99,,,-99.99,,2013-04-29 11:42:00,
2013-04-29 07:52:00,62.0,60.0,30.03,East,92,2.0,6.0,93,-99.99,,,-99.99,,2013-04-29 11:52:00,
2013-04-29 08:01:00,62.0,60.0,30.03,East,92,2.0,6.0,93,-99.99,,,-99.99,,2013-04-29 12:01:00,
2013-04-29 08:12:00,64.0,62.0,30.04,ESE,110,1.0,8.0,92,-99.99,,,-99.99,,2013-04-29 12:12:00,
2013-04-29 08:22:00,64.0,62.0,30.04,ESE,110,1.0,8.0,92,-99.99,,,-99.99,,2013-04-29 12:22:00,
2013-04-29 08:32:00,65.0,63.0,30.04,ENE,68,1.0,2.0,92,-99.99,,,-99.99,,2013-04-29 12:32:00,
2013-04-29 08:42:00,66.0,64.0,30.05,WNW,299,2.0,3.0,92,-99.99,,,-99.99,,2013-04-29 12:42:00,
2013-04-29 08:52:00,66.0,64.0,30.05,WNW,299,2.0,3.0,92,-99.99,,,-99.99,,2013-04-29 12:52:00,
2013-04-29 09:01:00,67.0,65.0,30.05,ENE,73,2.0,3.0,90,-99.99,,,-99.99,,2013-04-29 13:01:00,
2013-04-29 09:11:00,67.0,65.0,30.05,ENE,73,2.0,3.0,90,-99.99,,,-99.99,,2013-04-29 13:11:00,
2013-04-29 09:21:00,67.0,65.0,30.05,ENE,73,2.0,3.0,90,-99.99,,,-99.99,,2013-04-29 13:21:00,
2013-04-29 09:32:00,70.0,66.0,30.05,ESE,116,3.0,10.0,86,-99.99,,,-99.99,,2013-04-29 13:32:00,
2013-04-29 09:42:00,74.0,66.0,30.05,SE,131,5.0,9.0,77,-99.99,,,-99.99,,2013-04-29 13:42:00,
2013-04-29 09:52:00,74.0,66.0,30.05,SE,131,5.0,9.0,77,-99.99,,,-99.99,,2013-04-29 13:52:00,
2013-04-29 10:02:00,75.0,65.0,30.06,SE,141,6.0,9.0,71,-99.99,,,-99.99,,2013-04-29 14:02:00,
2013-04-29 10:12:00,77.0,65.0,30.06,SE,129,6.0,12.0,67,-99.99,,,-99.99,,2013-04-29 14:12:00,
2013-04-29 10:21:00,77.0,65.0,30.06,SE,129,6.0,12.0,67,-99.99,,,-99.99,,2013-04-29 14:21:00,
2013-04-29 10:32:00,77.0,65.0,30.06,SE,129,6.0,12.0,67,-99.99,,,-99.99,,2013-04-29 14:32:00,
2013-04-29 10:42:00,79.0,63.0,30.06,SE,134,9.0,13.0,57,-99.99,,,-99.99,,2013-04-29 14:42:00,
2013-04-29 10:52:00,79.0,63.0,30.06,SE,134,9.0,13.0,57,-99.99,,,-99.99,,2013-04-29 14:52:00,
2013-04-29 11:01:00,79.0,62.0,30.06,SE,133,10.0,15.0,55,-99.99,,,-99.99,,2013-04-29 15:01:00,
2013-04-29 11:12:00,80.0,62.0,30.06,SE,134,10.0,16.0,54,-99.99,,,-99.99,,2013-04-29 15:12:00,
2013-04-29 11:22:00,80.0,62.0,30.06,SE,134,10.0,16.0,54,-99.99,,,-99.99,,2013-04-29 15:22:00,
2013-04-29 11:33:00,81.0,63.0,30.06,SE,132,9.0,13.0,54,-99.99,,,-99.99,,2013-04-29 15:33:00,
2013-04-29 11:43:00,80.0,63.0,30.06,SSE,167,7.0,11.0,55,-99.99,,,-99.99,,2013-04-29 15:43:00,
2013-04-29 11:53:00,80.0,63.0,30.06,SSE,167,7.0,11.0,55,-99.99,,,-99.99,,2013-04-29 15:53:00,
2013-04-29 12:03:00,81.0,64.0,30.06,SE,145,7.0,11.0,56,-99.99,,,-99.99,,2013-04-29 16:03:00,
2013-04-29 12:13:00,81.0,64.0,30.06,SE,130,9.0,12.0,55,-99.99,,,-99.99,,2013-04-29 16:13:00,
2013-04-29 12:23:00,81.0,64.0,30.06,SE,130,9.0,12.0,55,-99.99,,,-99.99,,2013-04-29 16:23:00,
2013-04-29 12:33:00,82.0,64.0,30.06,SE,128,7.0,15.0,53,-99.99,,,-99.99,,2013-04-29 16:33:00,
2013-04-29 12:42:00,82.0,64.0,30.06,SE,128,7.0,15.0,53,-99.99,,,-99.99,,2013-04-29 16:42:00,
2013-04-29 12:52:00,82.0,64.0,30.06,SSE,151,8.0,13.0,52,-99.99,,,-99.99,,2013-04-29 16:52:00,
2013-04-29 13:02:00,82.0,64.0,30.06,SSE,151,8.0,13.0,52,-99.99,,,-99.99,,2013-04-29 17:02:00,
2013-04-29 13:12:00,82.0,63.0,30.05,SE,131,8.0,13.0,52,-99.99,,,-99.99,,2013-04-29 17:12:00,
2013-04-29 13:22:00,82.0,63.0,30.05,SE,131,8.0,13.0,52,-99.99,,,-99.99,,2013-04-29 17:22:00,
2013-04-29 13:32:00,82.0,63.0,30.05,SE,131,8.0,13.0,52,-99.99,,,-99.99,,2013-04-29 17:32:00,
2013-04-29 13:42:00,84.0,63.0,30.04,SSE,152,7.0,11.0,48,-99.99,,,-99.99,,2013-04-29 17:42:00,
2013-04-29 13:52:00,84.0,63.0,30.04,SSE,152,7.0,11.0,48,-99.99,,,-99.99,,2013-04-29 17:52:00,
2013-04-29 14:01:00,84.0,62.0,30.03,SSW,193,7.0,10.0,47,-99.99,,,-99.99,,2013-04-29 18:01:00,
2013-04-29 14:13:00,84.0,62.0,30.03,SSE,159,7.0,11.0,48,-99.99,,,-99.99,,2013-04-29 18:13:00,
2013-04-29 14:22:00,84.0,62.0,30.03,SSE,159,7.0,11.0,48,-99.99,,,-99.99,,2013-04-29 18:22:00,
2013-04-29 14:32:00,84.0,62.0,30.02,SSE,162,5.0,11.0,47,-99.99,,,-99.99,,2013-04-29 18:32:00,
2013-04-29 14:42:00,86.0,61.0,30.02,SSE,159,6.0,10.0,43,-99.99,,,-99.99,,2013-04-29 18:42:00,
2013-04-29 14:52:00,86.0,61.0,30.02,SSE,159,6.0,10.0,43,-99.99,,,-99.99,,2013-04-29 18:52:00,
2013-04-29 15:01:00,86.0,61.0,30.01,SSE,165,6.0,11.0,44,-99.99,,,-99.99,,2013-04-29 19:01:00,
2013-04-29 15:12:00,86.0,60.0,30.01,SSE,159,5.0,11.0,41,-99.99,,,-99.99,,2013-04-29 19:12:00,
2013-04-29 15:22:00,86.0,60.0,30.01,SSE,159,5.0,11.0,41,-99.99,,,-99.99,,2013-04-29 19:22:00,
2013-04-29 15:32:00,86.0,60.0,30.00,South,185,6.0,13.0,41,-99.99,,,-99.99,,2013-04-29 19:32:00,
2013-04-29 15:42:00,87.0,61.0,29.99,SSE,152,7.0,12.0,41,-99.99,,,-99.99,,2013-04-29 19:42:00,
2013-04-29 15:52:00,87.0,61.0,29.99,SSE,152,7.0,12.0,41,-99.99,,,-99.99,,2013-04-29 19:52:00,
2013-04-29 16:02:00,86.0,61.0,29.98,South,179,6.0,11.0,43,-99.99,,,-99.99,,2013-04-29 20:02:00,
2013-04-29 16:12:00,85.0,60.0,29.97,SSE,163,5.0,9.0,43,-99.99,,,-99.99,,2013-04-29 20:12:00,
2013-04-29 16:22:00,85.0,60.0,29.97,SSE,163,5.0,9.0,43,-99.99,,,-99.99,,2013-04-29 20:22:00,
2013-04-29 16:32:00,85.0,60.0,29.97,SSE,163,5.0,9.0,43,-99.99,,,-99.99,,2013-04-29 20:32:00,
2013-04-29 16:42:00,86.0,61.0,29.95,SSE,157,5.0,10.0,43,-99.99,,,-99.99,,2013-04-29 20:42:00,
2013-04-29 16:52:00,86.0,61.0,29.95,SSE,157,5.0,10.0,43,-99.99,,,-99.99,,2013-04-29 20:52:00,
2013-04-29 17:02:00,84.0,61.0,29.95,South,175,5.0,11.0,44,-99.99,,,-99.99,,2013-04-29 21:02:00,
2013-04-29 17:11:00,85.0,60.0,29.94,South,171,6.0,10.0,43,-99.99,,,-99.99,,2013-04-29 21:11:00,
2013-04-29 17:22:00,85.0,60.0,29.94,South,171,6.0,10.0,43,-99.99,,,-99.99,,2013-04-29 21:22:00,
2013-04-29 17:33:00,87.0,60.0,29.94,SSE,168,6.0,10.0,41,-99.99,,,-99.99,,2013-04-29 21:33:00,
2013-04-29 17:43:00,85.0,60.0,29.94,SSE,165,5.0,14.0,42,-99.99,,,-99.99,,2013-04-29 21:43:00,
2013-04-29 17:53:00,85.0,60.0,29.94,SSE,165,5.0,14.0,42,-99.99,,,-99.99,,2013-04-29 21:53:00,
2013-04-29 18:02:00,85.0,59.0,29.94,SSE,163,5.0,8.0,41,-99.99,,,-99.99,,2013-04-29 22:02:00,
2013-04-29 18:13:00,85.0,59.0,29.93,SSE,159,5.0,8.0,41,-99.99,,,-99.99,,2013-04-29 22:13:00,
2013-04-29 18:23:00,85.0,59.0,29.93,SSE,159,5.0,8.0,41,-99.99,,,-99.99,,2013-04-29 22:23:00,
2013-04-29 18:32:00,86.0,59.0,29.93,SSE,166,5.0,7.0,40,-99.99,,,-99.99,,2013-04-29 22:32:00,
2013-04-29 18:42:00,85.0,60.0,29.94,South,170,4.0,7.0,43,-99.99,,,-99.99,,2013-04-29 22:42:00,
2013-04-29 18:53:00,85.0,60.0,29.94,South,170,4.0,7.0,43,-99.99,,,-99.99,,2013-04-29 22:53:00,
2013-04-29 19:02:00,84.0,60.0,29.94,SSE,149,5.0,9.0,44,-99.99,,,-99.99,,2013-04-29 23:02:00,
2013-04-29 19:12:00,84.0,60.0,29.94,SE,143,5.0,10.0,44,-99.99,,,-99.99,,2013-04-29 23:12:00,
2013-04-29 19:22:00,84.0,60.0,29.94,SE,143,5.0,10.0,44,-99.99,,,-99.99,,2013-04-29 23:22:00,
2013-04-29 19:32:00,84.0,60.0,29.94,SE,143,5.0,10.0,44,-99.99,,,-99.99,,2013-04-29 23:32:00,
2013-04-29 19:42:00,77.0,62.0,29.94,South,180,19.0,31.0,59,-99.99,,,-99.99,,2013-04-29 23:42:00,
2013-04-29 19:53:00,77.0,62.0,29.94,South,180,19.0,31.0,59,-99.99,,,-99.99,,2013-04-29 23:53:00,
2013-04-29 20:01:00,73.0,63.0,29.94,South,181,14.0,21.0,69,-99.99,,,-99.99,,2013-04-30 00:01:00,
2013-04-29 20:11:00,73.0,63.0,29.94,South,181,14.0,21.0,69,-99.99,,,-99.99,,2013-04-30 00:11:00,
2013-04-29 20:22:00,73.0,63.0,29.94,South,181,14.0,21.0,69,-99.99,,,-99.99,,2013-04-30 00:22:00,
2013-04-29 20:32:00,73.0,63.0,29.95,South,191,13.0,20.0,70,-99.99,,,-99.99,,2013-04-30 00:32:00,
2013-04-29 20:42:00,72.0,63.0,29.95,SSW,200,12.0,20.0,72,-99.99,,,-99.99,,2013-04-30 00:42:00,
2013-04-29 20:52:00,72.0,63.0,29.95,SSW,200,12.0,20.0,72,-99.99,,,-99.99,,2013-04-30 00:52:00,
2013-04-29 21:02:00,72.0,64.0,29.96,SSW,212,8.0,12.0,75,-99.99,,,-99.99,,2013-04-30 01:02:00,
2013-04-29 21:11:00,72.0,64.0,29.96,SSW,212,8.0,12.0,75,-99.99,,,-99.99,,2013-04-30 01:11:00,
2013-04-29 21:22:00,72.0,64.0,29.96,SSW,212,8.0,12.0,75,-99.99,,,-99.99,,2013-04-30 01:22:00,
2013-04-29 21:32:00,72.0,65.0,29.97,WSW,243,13.0,21.0,76,-99.99,,,-99.99,,2013-04-30 01:32:00,
2013-04-29 21:42:00,72.0,65.0,29.97,WSW,243,13.0,21.0,76,-99.99,,,-99.99,,2013-04-30 01:42:00,
2013-04-29 21:52:00,71.0,65.0,29.97,WSW,245,13.0,21.0,82,-99.99,,,-99.99,,2013-04-30 01:52:00,
2013-04-29 22:01:00,71.0,65.0,29.97,WSW,245,13.0,21.0,82,-99.99,,,-99.99,,2013-04-30 02:01:00,
2013-04-29 22:11:00,70.0,64.0,29.97,SW,236,9.0,15.0,80,-99.99,,,-99.99,,2013-04-30 02:11:00,
2013-04-29 22:21:00,70.0,64.0,29.97,SW,236,9.0,15.0,80,-99.99,,,-99.99,,2013-04-30 02:21:00,
2013-04-29 22:31:00,69.0,63.0,29.97,WSW,238,6.0,9.0,80,-99.99,,,-99.99,,2013-04-30 02:31:00,
2013-04-29 22:41:00,69.0,63.0,29.98,SW,220,4.0,7.0,81,-99.99,,,-99.99,,2013-04-30 02:41:00,
2013-04-29 22:52:00,70.0,64.0,29.99,South,185,5.0,8.0,81,-99.99,,,-99.99,,2013-04-30 02:52:00,
2013-04-29 23:01:00,70.0,64.0,29.99,South,185,5.0,8.0,81,-99.99,,,-99.99,,2013-04-30 03:01:00,
2013-04-29 23:11:00,70.0,64.0,30.00,South,175,4.0,5.0,81,-99.99,,,-99.99,,2013-04-30 03:11:00,
2013-04-29 23:21:00,70.0,64.0,30.00,South,175,4.0,5.0,81,-99.99,,,-99.99,,2013-04-30 03:21:00,
2013-04-29 23:33:00,69.0,64.0,30.00,East,101,2.0,6.0,82,-99.99,,,-99.99,,2013-04-30 03:33:00,
2013-04-29 23:43:00,68.0,64.0,30.00,East,101,4.0,6.0,85,-99.99,,,-99.99,,2013-04-30 03:43:00,
2013-04-29 23:53:00,68.0,64.0,30.00,East,101,4.0,6.0,85,-99.99,,,-99.99,,2013-04-30 03:53:00,